Location: Katowice
(50.2611°N, 19.0242°E)
Time: 06:31:03
(UTC+02:00)

A-11 Canister half - All Passes

Search period start: 21 July 2019 00:00
Search period end: 31 July 2019 00:00
Orbit: 1526 x 1683 km, 47.3° (Epoch: 19 July)

Date Brightness Start Highest point End Pass type
(mag) Time Alt. Az. Time Alt. Az. Time Alt. Az.
21 Jul - 00:36:47 10° W 00:46:39 76° S 00:56:10 10° E visible
21 Jul - 02:41:50 10° W 02:51:09 53° SSW 03:00:11 10° SE visible
21 Jul - 04:47:47 10° W 04:54:28 22° SW 05:01:05 10° S daylight
21 Jul - 20:08:09 10° SSW 20:16:27 30° SE 20:24:34 10° E daylight
21 Jul - 22:10:29 10° SW 22:20:18 62° SSE 22:29:48 10° E visible
22 Jul - 00:15:08 10° W 00:25:01 76° S 00:34:34 10° E visible
22 Jul - 02:20:11 10° W 02:29:34 55° SSW 02:38:38 10° SE visible
22 Jul - 04:26:01 10° W 04:32:58 23° SW 04:39:47 10° S daylight
22 Jul - 19:46:43 10° S 19:54:52 29° SE 20:02:53 10° E daylight
22 Jul - 21:48:52 10° SW 21:58:40 61° SSE 22:08:12 10° E visible
22 Jul - 23:53:28 10° W 00:03:23 76° S 00:12:58 10° E visible
23 Jul - 01:58:31 10° W 02:07:58 56° SSW 02:17:07 10° SE visible
23 Jul - 04:04:15 10° W 04:11:25 24° SW 04:18:28 10° S visible
23 Jul - 19:25:17 10° S 19:33:18 28° SE 19:41:12 10° E daylight
23 Jul - 21:27:16 10° SW 21:37:03 59° SSE 21:46:34 10° E visible
23 Jul - 23:31:48 10° W 23:41:45 76° S 23:51:21 10° E visible
24 Jul - 01:36:51 10° W 01:46:23 58° SSW 01:55:34 10° SE visible
24 Jul - 03:42:31 10° W 03:49:54 26° SW 03:57:08 10° S visible
24 Jul - 19:03:53 10° S 19:11:45 27° SE 19:19:29 10° E daylight
24 Jul - 21:05:40 10° SW 21:15:27 58° SSE 21:24:57 10° E visible
24 Jul - 23:10:09 10° W 23:20:07 76° S 23:29:45 10° E visible
25 Jul - 01:15:12 10° W 01:24:47 59° SSW 01:34:01 10° SE visible
25 Jul - 03:20:47 10° W 03:28:22 27° SW 03:35:47 10° S visible
25 Jul - 18:42:29 10° S 18:50:11 26° SE 18:57:47 10° E daylight
25 Jul - 20:44:04 10° SW 20:53:49 57° SSE 21:03:20 10° E daylight
25 Jul - 22:48:30 10° W 22:58:29 76° S 23:08:09 10° E visible
26 Jul - 00:53:32 10° W 01:03:10 61° SSW 01:12:28 10° SE visible
26 Jul - 02:59:03 10° W 03:06:50 28° SW 03:14:25 10° S visible
26 Jul - 18:21:06 10° S 18:28:37 24° SE 18:36:02 10° E daylight
26 Jul - 20:22:28 10° SW 20:32:12 55° SSE 20:41:42 10° E daylight
26 Jul - 22:26:49 10° W 22:36:51 76° S 22:46:32 10° E visible
27 Jul - 00:31:52 10° W 00:41:34 62° SSW 00:50:55 10° SE visible
27 Jul - 02:37:20 10° W 02:45:17 30° SW 02:53:02 10° SSE visible
27 Jul - 17:59:45 10° S 18:07:04 23° SE 18:14:19 10° E daylight
27 Jul - 20:00:53 10° SW 20:10:35 54° SSE 20:20:04 10° E daylight
27 Jul - 22:05:10 10° W 22:15:12 76° S 22:24:55 10° E visible
28 Jul - 00:10:12 10° W 00:19:57 63° SSW 00:29:21 10° ESE visible
28 Jul - 02:15:37 10° W 02:23:44 31° SW 02:31:38 10° SSE visible
28 Jul - 17:38:25 10° S 17:45:32 22° SE 17:52:33 10° E daylight
28 Jul - 19:39:18 10° SW 19:48:59 53° SSE 19:58:26 10° E daylight
28 Jul - 21:43:31 10° WSW 21:53:33 76° S 22:03:19 10° E visible
28 Jul - 23:48:33 10° W 23:58:20 65° SSW 00:07:47 10° ESE visible
29 Jul - 01:53:54 10° W 02:02:11 32° SW 02:10:14 10° SSE visible
29 Jul - 17:17:06 10° S 17:23:58 21° SE 17:30:47 10° E daylight
29 Jul - 19:17:43 10° SW 19:27:22 51° SSE 19:36:49 10° E daylight
29 Jul - 21:21:51 10° WSW 21:31:55 75° S 21:41:41 10° E visible
29 Jul - 23:26:52 10° W 23:36:43 66° SSW 23:46:13 10° ESE visible
30 Jul - 01:32:12 10° W 01:40:38 34° SW 01:48:49 10° SSE visible
30 Jul - 16:55:48 10° S 17:02:25 20° SE 17:08:59 10° E daylight
30 Jul - 18:56:10 10° SW 19:05:45 50° SSE 19:15:11 10° E daylight
30 Jul - 21:00:12 10° WSW 21:10:17 75° S 21:20:04 10° E visible
30 Jul - 23:05:13 10° W 23:15:06 67° SSW 23:24:38 10° ESE visible
